Regional Weather Roundup
Issued by NWS Sterling, VA

Home | Current Version | Previous Version | Graphics & Text | Print | Product List | Glossary On
Versions: 1 2 3 4 5 6 7 8 9 10 11 12 13 14 15 16 17 18 19 20 21 22 23 24 25 26 27 28
000
ASUS41 KLWX 261911
RWRLWX

REGIONAL WEATHER ROUNDUP
NATIONAL WEATHER SERVICE BALTIMORE MD/WASHINGTON DC
300 PM EDT SUN MAR 26 2017

Note: "FAIR" indicates few or no clouds below 12,000 feet
with no significant weather and/or obstructions to visibility.
 TC=TEMPERATURE CELSIUS

 * =Non NWS site. Station does not report precipitation (e.g. rain,
    snow, etc.), thunder, or fog.

DCZ001-MDZ009-015-VAZ040>042-051-053>054-262000-
WASHINGTON METRO

CITY           SKY/WX    TMP DP  RH WIND       PRES   REMARKS
WASHINGTON NAT CLOUDY    49  46  90 E10       30.30F
DULLES         CLOUDY    48  43  82 E12       30.27F
ANDREWS AFB    CLOUDY    47  44  90 E12       30.28F
FT BELVOIR     CLOUDY    49  44  82 VRB7      30.28F
QUANTICO       CLOUDY    51  48  89 E10       30.28F
COLLEGE PARK*  CLOUDY    46  43  87 SE6       30.30F
LEESBURG*      CLOUDY    48  46  93 E8        30.28F
MANASSAS*      CLOUDY    50  45  83 E9        30.27F

$$

MDZ006>007-011-014-262000-
BALTIMORE METRO

CITY           SKY/WX    TMP DP  RH WIND       PRES   REMARKS
BWI AIRPORT    CLOUDY    47  45  93 E13       30.31F FOG
MD SCIENCE CTR   N/A     48  42  80 MISG      30.32F
ANNAPOLIS      CLOUDY    48  44  86 E12       30.31F
FORT MEADE*    CLOUDY    46  43  87 E9        30.33F

$$

MDZ012-015-019>023-262000-
MARYLAND EASTERN SHORE

CITY           SKY/WX    TMP DP  RH WIND       PRES   REMARKS
OCEAN CITY     FOG       47  45  93 NE9       30.31F VSB 1
SALISBURY      CLOUDY    50  47  89 E14       30.30F
BAY BRIDGE AP* CLOUDY    48  43  81 E5        30.32F FOG
CAMBRIDGE*     PTSUNNY   50  46  87 NE9       30.30S
EASTON*        CLOUDY    48  45  87 E12       30.35F

$$

MDZ017>025-262000-
SOUTHERN MARYLAND

CITY           SKY/WX    TMP DP  RH WIND       PRES   REMARKS
PATUXENT RIVER CLOUDY    52  49  89 NE8       30.28F
ST INIGOES     CLOUDY    53  48  83 NE7       30.27F
LEONARDTOWN*   CLOUDY    52  46  82 E5        30.29F

$$

MDZ003>005-262000-
NORTH CENTRAL MARYLAND

CITY           SKY/WX    TMP DP  RH WIND       PRES   REMARKS
FREDERICK*     CLOUDY    50  48  93 E10       30.32F FOG
HAGERSTOWN APT CLOUDY    48  43  82 E10       30.25F
WESTMINSTER*   CLOUDY    45  43  93 E9        30.28F FOG

$$

MDZ501>502-262000-
WESTERN MARYLAND

CITY           SKY/WX    TMP DP  RH WIND       PRES   REMARKS
OAKLAND*       CLOUDY    43  41  93 SE16G23   30.11F FOG
CUMBERLAND*    CLOUDY    52  43  71 NE7       30.24S

$$

VAZ025>031-262000-
SHENANDOAH VALLEY

CITY           SKY/WX    TMP DP  RH WIND       PRES   REMARKS
WINCHESTER*    CLOUDY    46  43  87 E7        30.23F
FRONT ROYAL*   CLOUDY    50  46  87 E15G21    30.21R
LURAY*         CLOUDY    61  50  67 NE8       30.17F
NEW MARKET*    PTSUNNY   58  47  67 NE10      30.16F
STAUNTON*      MOSUNNY   65  50  58 S14G22    30.17F
WAYNESBORO*    CLOUDY    58  49  69 SE16G25   30.17F

$$

WVZ021-048>050-054>055-262000-
EASTERN WEST VIRGINIA PANHANDLE

CITY           SKY/WX    TMP DP  RH WIND       PRES   REMARKS
MARTINSBURG    CLOUDY    47  43  86 E7        30.25F
PETERSBURG*    CLOUDY    59  47  64 N9G16     30.14S

$$

VAZ036>039-050-262000-
CENTRAL FOOTHILLS

CITY           SKY/WX    TMP DP  RH WIND       PRES   REMARKS
CHARLOTTESVILL CLOUDY    58  48  69 NE10      30.22F
CULPEPER*      CLOUDY    51  47  86 NE3       30.27F
ORANGE*        CLOUDY    52  46  82 NE7       30.25F
GORDONSVILLE*  CLOUDY    56  49  76 NE6       30.23S
WARRENTON*     CLOUDY    52  44  75 E7        30.26F

$$

VAZ055>057-262000-
NORTH AND CENTRAL PIEDMONT

CITY           SKY/WX    TMP DP  RH WIND       PRES   REMARKS
FREDERICKSBRG* CLOUDY    53  48  84 NE9       30.25F
STAFFORD*      CLOUDY    50  48  92 E8        30.30F FOG

$$

NCZ024-NYZ072-PAZ021-071-VAZ022-071-262000-
OTHER REGIONAL OBSERVATIONS

CITY           SKY/WX    TMP DP  RH WIND       PRES   REMARKS
NEW YORK CITY  CLOUDY    40  33  76 E8        30.45F
PHILADELPHIA   CLOUDY    45  39  79 E13       30.37F
PITTSBURGH     LGT RAIN  64  49  57 SE12      30.01F
ROANOKE        LGT RAIN  64  53  67 S9        30.17F
RICHMOND       CLOUDY    69  55  60 E9        30.20F
RALEIGH        PTSUNNY   75  50  41 S9G20     30.17F

$$

ANZ530>537-262000-
MARINE OBSERVATIONS

STATION/POSITION TIME  TEMP    WIND        PRES
                       AIR SEA DIR/SP/G
                 (UTC) (F)     (DEG/KT/KT) (MB)
THOMAS PT LIGHT  1900   46 45   90/  8/ 10   N/A
BALT KEY BRIDGE  1848   46      90/ 11/ 12 1026.8F
COVE POINT       1842   49      80/  5/  6 1026.4F
LEWISETTA        1842   50 50   70/  5/  7 1025.1F
SOLOMONS ISLAND  1842   50 47   70/  6/  7   N/A
PINEY POINT      1848           80/  8/  9   N/A

$$





USA.gov is the U.S. government's official web portal to all federal, state and local government web resources and services.